Tracking 25701 objects as of 3-Jul-2022
HD Live streaming from Space Station
objects crossing your sky now

FENGYUN 1C DEB

Track FENGYUN 1C DEB now!
10-day predictions


NORAD ID: 35135
Int'l Code: 1999-025DLP
Perigee: 775.8 km
Apogee: 899.3 km
Inclination: 98.6 °
Period: 101.5 minutes
Semi major axis: 7208 km
RCS: 0.0108 m2 (small)
Launch date: May 10, 1999
Source: People's Republic of China (PRC)
Launch site: Taiyaun Space Center, China (TSC)

Note: This is SATELLITE DEBRIS
aabbcc
Your satellite tracking list
Your tracking list is empty




NASA's NSSDC Master Catalog

Two Line Element Set (TLE):
1 35135U 99025DLP 22183.87471671  .00000285  00000-0  15327-3 0  9995
2 35135  98.6406 211.7886 0085621 326.2110 209.6553 14.18506768700555
Source of the keplerian elements: AFSPC